Location: Proctor
(47.8934°N, 114.3048°W)
Time: 17:00:33
(UTC+00:00)

Transit 4A - Pass Details

Date: 21 May 2025
Orbit: 866 x 975 km, 66.8° (Epoch: 13 June)

Event Time Altitude Azimuth Distance (km) Brightness Sun altitude
Rises 10:02:58 0° 325° (NW) 3,588 11.2 -14.1°
Reaches altitude 10° 10:05:33 10° 327° (NNW) 2,624 10.5 -13.8°
Maximum altitude 10:11:38 76° 53° (NE) 931 8.0 -13.2°
Drops below altitude 10° 10:17:32 10° 140° (SE) 2,539 10.1 -12.6°
Sets 10:19:59 0° 142° (SE) 3,462 10.8 -12.3°
